San Juan, PR

8:10 PM AST on July 24, 2017 (GMT -0400)
Luis Munoz Marin International

Weather History for TJSJ - October, 2013

Change the Weather History Date:

Monday, October 14, 2013

  Actual Average Record
Temperature  
Mean Temperature 85 °F 83 °F  
Max Temperature 92 °F 89 °F 97 °F (1981)
Min Temperature 77 °F 77 °F 71 °F (1958)
Degree Days  
Heating Degree Days 0 0  
Month to date heating degree days 0 0  
Since 1 July heating degree days 0 0  
Cooling Degree Days 20 18  
Month to date cooling degree days 268 252  
Year to date cooling degree days 4773 4664  
Growing Degree Days 34 (Base 50)    
Moisture  
Dew Point 72 °F    
Average Humidity 69    
Maximum Humidity 88    
Minimum Humidity 49    
Precipitation  
Precipitation 0.00 in 0.17 in 3.70 in (1943)
Month to date precipitation 1.53 2.27  
Year to date precipitation 66.77 41.66  
Sea Level Pressure  
Sea Level Pressure 29.92 in    
Wind  
Wind Speed 7 mph (ESE)    
Max Wind Speed 21 mph    
Max Gust Speed 25 mph    
Visibility 10 miles    
Events Thunderstorm    
T = Trace of Precipitation, MM = Missing Value Source: NWS Daily Summary

Daily Weather History Graph

Daily Weather History Graph

Search for Another Location

Airport or City:

Trip Planner

Search our weather history database for the weather conditions in past years. The results will help you decide how hot, cold, wet, or windy it might be!

Date:

Astronomy

Oct. 14, 2013 Rise Set
Actual Time 6:17 AM AST 6:02 PM AST
Civil Twilight 5:55 AM AST 6:24 PM AST
Nautical Twilight 5:30 AM AST 6:49 PM AST
Astronomical Twilight 5:04 AM AST 7:14 PM AST
Moon 2:57 PM AST (10/14) 2:06 AM AST (10/14)
Length of Visible Light 12h 28m
Length of Day
11h 44m
Waxing Gibbous, 79% of the Moon is Illuminated
Oct 14
Waxing Gibbous
Oct 18
Full
Oct 26
Last Quarter
Nov 3
New
Nov 10
First Quarter

Hourly Weather History & Observations

Time (AST) Temp. Heat Index Dew Point Humidity Pressure Visibility Wind Dir Wind Speed Gust Speed Precip Events Conditions
12:56 AM 79.0 °F - 73.9 °F 84% 29.94 in 10.0 mi Calm Calm - N/A Thunderstorm Thunderstorm
1:56 AM 78.1 °F - 73.0 °F 84% 29.91 in 10.0 mi Calm Calm - N/A   Scattered Clouds
2:56 AM 78.1 °F - 73.9 °F 87% 29.90 in 10.0 mi Calm Calm - N/A   Partly Cloudy
3:56 AM 77.0 °F - 73.0 °F 88% 29.89 in 10.0 mi Calm Calm - N/A   Partly Cloudy
4:56 AM 78.1 °F - 73.0 °F 84% 29.90 in 10.0 mi SE 3.5 mph - N/A   Partly Cloudy
5:56 AM 78.1 °F - 72.0 °F 81% 29.90 in 10.0 mi SE 3.5 mph - N/A   Partly Cloudy
6:56 AM 79.0 °F - 71.1 °F 77% 29.92 in 10.0 mi East 3.5 mph - N/A   Partly Cloudy
7:56 AM 82.9 °F 88.8 °F 73.0 °F 72% 29.93 in 9.0 mi ESE 6.9 mph - N/A   Scattered Clouds
8:56 AM 86.0 °F 92.2 °F 72.0 °F 63% 29.94 in 9.0 mi Variable 4.6 mph - N/A   Scattered Clouds
9:56 AM 88.0 °F 93.8 °F 71.1 °F 57% 29.95 in 9.0 mi East 10.4 mph - N/A   Scattered Clouds
10:56 AM 89.1 °F 97.0 °F 73.0 °F 59% 29.94 in 9.0 mi East 13.8 mph - N/A   Scattered Clouds
11:56 AM 91.0 °F 97.6 °F 71.1 °F 52% 29.92 in 10.0 mi East 10.4 mph - N/A   Scattered Clouds
12:56 PM 91.0 °F 95.6 °F 69.1 °F 48% 29.90 in 10.0 mi East 11.5 mph 21.9 mph N/A   Scattered Clouds
1:56 PM 88.0 °F 93.8 °F 71.1 °F 57% 29.88 in 10.0 mi East 19.6 mph 23.0 mph N/A   Scattered Clouds
2:56 PM 88.0 °F 92.9 °F 70.0 °F 55% 29.87 in 9.0 mi East 16.1 mph - N/A   Scattered Clouds
3:56 PM 89.1 °F 96.0 °F 72.0 °F 57% 29.88 in 9.0 mi East 11.5 mph - N/A   Scattered Clouds
4:56 PM 87.1 °F 93.6 °F 72.0 °F 61% 29.88 in 9.0 mi East 10.4 mph - N/A   Scattered Clouds
5:56 PM 84.9 °F 90.7 °F 72.0 °F 65% 29.90 in 9.0 mi East 11.5 mph - N/A   Scattered Clouds
6:56 PM 84.0 °F 90.2 °F 73.0 °F 69% 29.92 in 10.0 mi East 6.9 mph - N/A   Clear
7:56 PM 82.9 °F 88.8 °F 73.0 °F 72% 29.94 in 10.0 mi ESE 5.8 mph - N/A   Partly Cloudy
8:56 PM 82.9 °F 88.8 °F 73.0 °F 72% 29.94 in 10.0 mi ESE 4.6 mph - N/A   Partly Cloudy
9:56 PM 82.0 °F 87.4 °F 73.0 °F 74% 29.94 in 10.0 mi ESE 4.6 mph - N/A   Partly Cloudy
10:56 PM 82.0 °F 87.4 °F 73.0 °F 74% 29.94 in 10.0 mi ESE 4.6 mph - N/A   Partly Cloudy
11:56 PM 81.0 °F 85.8 °F 73.0 °F 77% 29.94 in 10.0 mi SSE 3.5 mph - N/A   Partly Cloudy